Other Public Products
Issued by NWS Charleston, SC

Current Version | Previous Version | Text Only | Print | Product List | Glossary Off
Versions: 1 2 3 4 5 6 7 8 9 10 11 12 13 14 15 16 17 18 19 20 21 22 23 24 25 26 27 28 29 30 31 32 33 34 35 36 37 38 39 40 41 42 43 44 45 46 47 48 49 50

141
FPUS82 KCHS 201427
OPUCHS

TEST...KCHS/KSAV Gateway Observations...TEST
National Weather Service Charleston SC
900 AM EST MON NOV 20 2017

NOTE: "fair" indicates few or no clouds below 12,000 feet with no
significant weather and/or obstructions to visibility.

SCZ050-WAZ558-NCZ071-TXZ119-213-PAZ071-DCZ001-FLZ074-172-MI076-
NYZ176-178-MAZ016-IL014-TNZ027-NJZ106-GAZ044-MD014-201500-

...Gateway Observations for Charleston International...

CITY           SKY/WX    TMP DP  RH WIND       PRES   REMARKS
Chas Airport   MOSUNNY   47  34  60 E8        30.27R
Seattle        LGT RAIN  50  47  89 SE7       29.48F
Charlotte      SUNNY     41  31  67 N3        30.28R
Dallas DFW     CLOUDY    43  32  65 CALM      30.19R
Dallas Love    MOCLDY    47  31  53 S7        30.21R
Philladelphia  MOSUNNY   40  21  46 W15       30.12R WCI  32
Wash National  SUNNY     42  20  41 W13       30.22R
Baltimore      MOSUNNY   40  22  48 W10G20    30.17R WCI  33
Miami          PTSUNNY   71  64  78 VRB6      30.06R
Detroit        CLOUDY    32  23  69 SW17      30.05S WCI  21
Newark         PTSUNNY   39  25  57 W12       30.05R WCI  32
Laguardia      PTSUNNY   39  24  55 W16G26    30.04R WCI  30
J F K          PTSUNNY   40  26  57 W18G25    30.06R WCI  31
Boston Logan   MOSUNNY   36  15  42 W17G31    29.87R WCI  26
Ft. Lauderdale PTSUNNY   75  68  78 NE17G24   30.05R
Chicago O`Hare MOSUNNY   36  25  64 SW13      29.94S WCI  27
Chicago Midway MOSUNNY   36  26  67 SW14      29.96F WCI  27
Houston Bush   PTSUNNY   47  42  83 CALM      30.22S
Houston Hobby  PTSUNNY   53  41  63 E6        30.21S
Nashville      MOSUNNY   35  28  75 CALM      30.30R
Atlanta        MOSUNNY   40  30  67 VRB3      30.23R

$$

GAZ044-118-TXZ119-213-NCZ071-DCZ001-MDZ014-506-PAZ021-071-NJZ106-
NYZ176-178-MAZ106-OHZ011-021-055-MIZ076-KYZ091-ILZ014-INZ047-
MNZ060-ONZ431-201500-

...Gateway Observations for Savannah International...

CITY           SKY/WX    TMP DP  RH WIND       PRES   REMARKS
Savannah Arpt  MOSUNNY   48  36  63 NE8       30.26R
Atlanta        MOSUNNY   40  30  67 VRB3      30.23R
Charlotte      SUNNY     41  31  67 N3        30.28R
Dallas DFW     CLOUDY    43  32  65 CALM      30.19R
Houston Bush   PTSUNNY   47  42  83 CALM      30.22S
Wash National  SUNNY     42  20  41 W13       30.22R
Wash Dulles    SUNNY     39  21  48 NW12      30.20R WCI  32
Baltimore      MOSUNNY   40  22  48 W10G20    30.17R WCI  33
Philadelphia   MOSUNNY   40  21  46 W15       30.12R WCI  32
Newark         PTSUNNY   39  25  57 W12       30.05R WCI  32
Laguardia      PTSUNNY   39  24  55 W16G26    30.04R WCI  30
J F K          PTSUNNY   40  26  57 W18G25    30.06R WCI  31
Boston         MOSUNNY   36  15  42 W17G31    29.87R WCI  26
Pittsburg      MOSUNNY   29  22  75 SW13      30.16R WCI  19
Akron          MOSUNNY   30  22  72 SW10      30.15R WCI  21
Cleveland      MOSUNNY   31  24  75 S12       30.14S WCI  22
Cincinnati     PTSUNNY   29  26  89 S7        30.22S WCI  22
Columbus       SUNNY     30  26  83 SW9       30.22S WCI  22
Detroit        CLOUDY    32  23  69 SW17      30.05S WCI  21
Chicago O`Hare MOSUNNY   36  25  64 SW13      29.94S WCI  27
Minneapolis    CLOUDY    30  27  88 SE7       29.65F WCI  23
Indianapolis   CLOUDY    30  22  72 S9        30.16S WCI  22
Toronto Canada PTSUNNY   32  23  69 W12       29.95R WCI  23

$$




USA.gov is the U.S. government's official web portal to all federal, state and local government web resources and services.